This is the latest recevied weather packets stored in our database for station/object DC7RY. If no packets are shown the sender has not sent any weather packets the latest 10 day(s).
| Time | Temp. | Humidity | Pressure | Rain* | Wind** | Luminosity | Snow |
|---|---|---|---|---|---|---|---|
| 1777537827 | 8.33° C | 40% | 1024.3 hPa | 0 mm | - | 87 W/m² | - |
| 1777537219 | 8.33° C | 42% | 1024.4 hPa | 0 mm | - | 44 W/m² | - |
| 1777536627 | 8.33° C | 42% | 1024.6 hPa | 0 mm | - | 47 W/m² | - |
| 1777536019 | 7.78° C | 42% | 1024.5 hPa | 0 mm | - | 37 W/m² | - |
| 1777535427 | 7.78° C | 43% | 1024.6 hPa | 0 mm | - | 35 W/m² | - |
| 1777534819 | 7.78° C | 45% | 1024.5 hPa | 0 mm | - | 35 W/m² | - |
| 1777534227 | 7.78° C | 45% | 1024.3 hPa | 0 mm | - | 37 W/m² | - |
| 1777533619 | 7.78° C | 45% | 1024.3 hPa | 0 mm | - | 46 W/m² | - |
| 1777533027 | 7.22° C | 44% | 1024 hPa | 0 mm | - | 80 W/m² | - |
| 1777532419 | 6.67° C | 45% | 1024.1 hPa | 0 mm | - | 94 W/m² | - |
| 1777531827 | 6.11° C | 47% | 1024 hPa | 0 mm | - | 70 W/m² | - |
| 1777531219 | 5.56° C | 48% | 1024 hPa | 0 mm | - | 52 W/m² | - |
| 1777530627 | 5.56° C | 48% | 1024.1 hPa | 0 mm | - | 45 W/m² | - |
| 1777530019 | 5° C | 49% | 1023.9 hPa | 0 mm | - | 37 W/m² | - |
| 1777529427 | 5° C | 50% | 1023.9 hPa | 0 mm | - | 35 W/m² | - |
| 1777528819 | 4.44° C | 51% | 1023.8 hPa | 0 mm | - | 31 W/m² | - |
| 1777528227 | 3.89° C | 53% | 1023.8 hPa | 0 mm | - | 29 W/m² | - |
| 1777527619 | 3.89° C | 53% | 1023.8 hPa | 0 mm | - | 27 W/m² | - |
| 1777527027 | 3.33° C | 54% | 1023.8 hPa | 0 mm | - | 26 W/m² | - |
| 1777526419 | 2.78° C | 55% | 1023.9 hPa | 0 mm | - | 24 W/m² | - |
| 1777525827 | 2.22° C | 56% | 1023.7 hPa | 0 mm | - | 23 W/m² | - |
| 1777525219 | 1.67° C | 59% | 1023.8 hPa | 0 mm | - | 23 W/m² | - |
| 1777524627 | 1.11° C | 62% | 1023.8 hPa | 0 mm | - | 22 W/m² | - |
| 1777524019 | 0.56° C | 64% | 1023.6 hPa | 0 mm | - | 16 W/m² | - |
| 1777523427 | 0° C | 68% | 1023.6 hPa | 0 mm | - | 13 W/m² | - |
* Rain latest hour (hover to see other rain measurements)
** Current wind speed in m/s (hover to see current wind gust speed)